STARLINK BF

Last updated on Jan. 16, 2020, 12:02 a.m. UTC

1 44967U 20001BF  20015.58334491  .00019564  00000-0  94686-4 0  9990
2 44967  53.0003 354.7582 0003629 261.0243 164.2498 15.82578428  1358

Satellite is not in orbit.